Tracking 20475 objects as of 27-Feb-2020
HD Live streaming from Space Station
objects crossing your sky now

COSMOS 644

Track COSMOS 644 now!
10-day predictions
COSMOS 644 is classified as:


NORAD ID: 7268
Int'l Code: 1974-024D
Perigee: 1,341.2 km
Apogee: 1,489.0 km
Inclination: 74.0 °
Period: 114.0 minutes
Semi major axis: 7786 km
RCS: 0.704 m2 (medium)
Launch date: April 23, 1974
Source: Commonwealth of Independent States (former USSR) (CIS)
Launch site: PLESETSK MISSILE AND SPACE COMPLEX (PKMTR)
aabbcc
Your satellite tracking list
Your tracking list is empty




NASA's NSSDC Master Catalog

Two Line Element Set (TLE):
1  7268U 74024D   20057.25567845 -.00000011 +00000-0 +31717-4 0  9992
2  7268 074.0157 276.5385 0094885 238.0709 121.1095 12.63645704114775
Source of the keplerian elements: AFSPC